Location: Andershausen
(51.8462°N, 9.8595°E)
Time: 10:31:45
(UTC+00:00)

Cosmos 1943 Rocket - Pass Details

Date: 18 November 2025
Orbit: 812 x 841 km, 71.0° (Epoch: 11 December)

Event Time Altitude Azimuth Distance (km) Brightness Sun altitude
Rises 19:08:21 0° 257° (WSW) 3,375 6.2 -33.9°
Reaches altitude 10° 19:11:19 10° 272° (W) 2,439 5.4 -34.4°
Maximum altitude 19:15:41 23° 324° (NW) 1,705 4.1 -35.0°
Enters shadow 19:16:52 21° 342° (NNW) 1,768 4.1 -35.2°
